User: anonymous   Login
Location: PSU-Greenbush Astrophysical Observatory
(37.5140°N, 94.9880°W)
Time: 22:18:07
(UTC-06:00)
Language:

nSIGHT-1 - Orbit

View from above orbital plane
View from above orbital plane
View from above satellite
View from above satellite

Ground track
Ground track

The orbit data is extracted from the following two-line orbital elements,

1 42726U 98067MF  20057.10450992  .00085546  13836-4  28173-3 0  9992
2 42726  51.6290  84.2991 0005600  56.2872 303.8667 15.90510277157687
Epoch (UTC): 26 February 2020 02:30:29
Eccentricity: 0.0005600
inclination: 51.6290°
perigee height: 297 km
apogee height: 304 km
right ascension of ascending node: 84.2991°
argument of perigee: 56.2872°
revolutions per day: 15.90510277
mean anomaly at epoch: 303.8667°
orbit number at epoch: 15768

The dashed part of the orbit path shows where the satellite is in the earth's shadow,  

DLR